Regional Weather Roundup
Issued by NWS

Home | Current Version | Previous Version | Text Only | Print | Product List | Glossary Off
Versions: 1 2 3 4 5 6 7 8 9 10 11 12 13 14 15 16 17 18 19 20 21 22 23 24 25 26 27 28 29 30 31 32 33 34 35 36 37 38 39 40 41 42 43 44 45 46 47 48 49 50

000
ASUS43 KFSD 301302
RWRSD

WEATHER ROUNDUP FOR SOUTH DAKOTA
NATIONAL WEATHER SERVICE SIOUX FALLS SD
800 AM CDT TUE JUN 30 2015

NOTE: "FAIR" INDICATES FEW OR NO CLOUDS BELOW 12,000 FEET WITH NO
SIGNIFICANT WEATHER AND/OR OBSTRUCTIONS TO VISIBILITY.


SDZ001>005-009-010-012>017-301400-
NORTHWEST AND NORTH CENTRAL SOUTH DAKOTA

CITY           SKY/WX    TMP DP  RH WIND       PRES   REMARKS
BUFFALO          N/A     67  62  84 NE8       29.88F
FAITH            N/A     68  60  75 SE17G25   29.93R
MOBRIDGE       CLOUDY    68  67  96 E7        29.92R
$$

SDZ012>016-024>037-041>051-057-063-072>074-301400-
SOUTHWEST AND SOUTH CENTRAL SOUTH DAKOTA

CITY           SKY/WX    TMP DP  RH WIND       PRES   REMARKS
RAPID CTY ARPT PTSUNNY   71  60  68 NW7       29.95S
PIERRE         CLOUDY    69  63  81 SE12      29.91R
CUSTER         PTSUNNY   64  52  64 W5        30.14S
ELLSWORTH AFB  PTSUNNY   72  58  60 W8        29.95R
PHILIP         PTSUNNY   70  64  81 SE6       29.93R
PINE RIDGE     MOSUNNY   65  59  81 CALM      30.01S
WINNER         FAIR      73  59  61 SE16      29.95F
$$

SDZ004>011-016>023-039-040-301400-
NORTHEAST SOUTH DAKOTA

CITY           SKY/WX    TMP DP  RH WIND       PRES   REMARKS
ABERDEEN       CLOUDY    68  63  84 E8        29.94F
WATERTOWN      PTSUNNY   64  61  90 N5        29.97R FOG
BROOKINGS      CLOUDY    63  59  88 CALM      29.98S
SISSETON         N/A     65  61  87 CALM      29.95F
$$

SDZ017-020-022-023-036>040-048>070-301400-
SOUTHEAST SOUTH DAKOTA

CITY           SKY/WX    TMP DP  RH WIND       PRES   REMARKS
SIOUX FALLS    CLOUDY    66  63  90 CALM      29.96R
HURON          LGT RAIN  67  64  90 SE6       29.92F FOG
CHAMBERLAIN    CLOUDY    67  63  87 SE9       29.93F
MITCHELL       LGT RAIN  69  67  93 S7        29.93F FOG
YANKTON        CLOUDY    66  63  88 CALM      29.94F
$$

ABBREVIATIONS USED IN REMARKS
   TC - TEMPERATURE IN CELSIUS
  WCI - WIND CHILL INDEX
   HX - HEAT INDEX
  VSB - VISIBILITY




USA.gov is the U.S. government's official web portal to all federal, state and local government web resources and services.